User: anonymous   Login
Location: Asni�res
(49.1337°N, 2.3555°E)
Time: 05:01:18
(UTC+00:00)
Language:

OPS 6432 - Orbit

View from above orbital plane
View from above orbital plane
View from above satellite
View from above satellite

Ground track
Ground track

The orbit data is extracted from the following two-line orbital elements,

1 14112U 83056A   22020.73561464 0.00002921  00000-0  19733-3 0    06
2 14112  63.2817 266.9932 0895600 103.5826 256.8268 13.60051790    07
Epoch (UTC): 20 January 2022 17:39:17
Eccentricity: 0.0895600
inclination: 63.2817°
perigee height: 371 km
apogee height: 1699 km
right ascension of ascending node: 266.9932°
argument of perigee: 103.5826°
revolutions per day: 13.60051790
mean anomaly at epoch: 256.8268°
orbit number at epoch: 0

The dashed part of the orbit path shows where the satellite is in the earth's shadow,  

DLR